Find Kosmos-480

NORAD ID: 5905 Int'l Des: 1972-019 Owner: OKB10 Country: SU operational
LEOCIRCULARPOLAR

Aktuelle Ansicht

3D-Globus wird geladen...

About Kosmos-480

Kosmos-480 (NORAD 5905) is a satellite by OKB10 of SU. It operates in LEO, CIRCULAR, POLAR orbit

Nächste Überflüge

Passes for default location (London). Set your location on the main map for personalized predictions.

Höhenverlauf

Loading altitude history...

Zweizeiliger Elementsatz

1 5905U 72019A 26195.14993161 .00000025 00000-0 31004-4 0 9994
2 5905 82.9749 276.1131 0017796 332.4694 47.4982 13.19938431615662
Epoch: 14. Juli 2026 • Age: 11 hours

Aktueller Status

Höhe 1176.9 km
Apogäum / Perigäum N/A
Geschwindigkeit 7.27 km/s
Subsatellitenpunkt 12.45°N, 127.75°E
Typ other

Most Searched